Date,Time,ΒΙΑΝΝΟΣ Duration (SUM),M08 Barometric Pressure (AVG),M08 Temperature (AVG),ΒΙΑΝΝΟΣ WIND DIRECTION (AVG),M08 Pyranometer 0 - 2000 W/m² (AVG),M08 WIND SPEED (AVG),M08 Relative Humidity (AVG),M08 Precipitation (SUM),ΒΙΑΝΝΟΣ Daily ETo
23/07/2015,00:00:00,0.0,946.4,28.3,152.7,346.1,0.7,41.3,0.0,0.00
24/07/2015,00:00:00,0.0,946.4,28.3,152.7,346.1,0.7,41.3,0.0,6.36
25/07/2015,00:00:00,0.0,947.6,27.2,179.2,342.3,0.7,43.3,0.0,6.20
26/07/2015,00:00:00,0.0,948.8,26.5,170.4,340.3,0.7,49.9,0.0,6.10
27/07/2015,00:00:00,0.0,947.6,26.1,173.0,335.3,0.8,54.5,0.0,5.95
28/07/2015,00:00:00,0.0,945.8,27.9,133.3,341.3,1.1,38.2,0.0,6.70
29/07/2015,00:00:00,0.0,945.7,29.8,125.9,337.0,1.1,30.0,0.0,6.72
30/07/2015,00:00:00,0.0,946.2,29.5,125.3,337.9,0.9,32.4,0.0,6.51
31/07/2015,00:00:00,0.0,946.2,30.4,137.1,339.6,0.9,28.6,0.0,6.54
01/08/2015,00:00:00,0.0,945.8,31.0,169.8,339.4,1.2,31.7,0.0,6.93
02/08/2015,00:00:00,0.0,947.9,29.8,211.8,327.2,1.9,38.7,0.0,7.00
03/08/2015,00:00:00,0.0,949.7,28.7,84.3,325.1,2.4,43.2,0.0,7.27
04/08/2015,00:00:00,0.0,949.4,29.2,145.8,323.3,1.6,43.4,0.0,6.89
05/08/2015,00:00:00,0.0,948.2,29.6,161.0,321.7,1.5,42.3,0.0,6.80
06/08/2015,00:00:00,0.0,947.3,27.8,181.6,330.4,0.6,46.4,0.0,5.83
07/08/2015,00:00:00,0.0,946.4,26.8,162.8,261.7,0.7,56.0,0.0,4.77
08/08/2015,00:00:00,0.0,947.3,26.2,136.1,272.8,0.8,59.9,0.0,4.59
09/08/2015,00:00:00,30.0,950.0,25.4,157.8,237.5,0.9,64.0,1.0,4.52
10/08/2015,00:00:00,30.0,950.9,25.2,172.6,294.3,1.0,67.0,0.8,5.23
11/08/2015,00:00:00,0.0,950.1,25.5,207.0,317.4,1.3,55.1,0.0,5.47
12/08/2015,00:00:00,0.0,950.3,26.7,222.7,311.5,1.2,48.6,0.0,5.83
13/08/2015,00:00:00,0.0,951.2,26.7,150.7,314.5,1.0,46.8,0.0,5.54
14/08/2015,00:00:00,0.0,949.2,28.3,143.9,318.9,0.8,39.3,0.0,5.78
15/08/2015,00:00:00,0.0,948.3,26.8,137.3,214.1,0.9,49.1,0.0,4.14
16/08/2015,00:00:00,0.0,947.5,25.6,171.2,218.3,0.8,67.1,0.0,3.69
17/08/2015,00:00:00,0.0,948.1,26.0,209.1,259.4,1.0,61.7,0.0,4.72
18/08/2015,00:00:00,0.0,948.9,27.9,171.9,322.7,1.5,37.8,0.0,6.24
19/08/2015,00:00:00,0.0,948.4,28.6,227.5,329.9,1.1,35.7,0.0,6.45
20/08/2015,00:00:00,0.0,949.1,25.6,155.1,315.1,1.2,52.5,0.0,6.05
21/08/2015,00:00:00,0.0,950.9,24.3,59.0,36.5,1.3,41.8,0.0,0.52
22/08/2015,00:00:00,*,*,*,*,*,*,*,*,0.00
23/08/2015,00:00:00,*,*,*,*,*,*,*,*,0.00
24/08/2015,00:00:00,*,*,*,*,*,*,*,*,0.00
25/08/2015,00:00:00,*,*,*,*,*,*,*,*,0.00
26/08/2015,00:00:00,*,*,*,*,*,*,*,*,0.00
27/08/2015,00:00:00,*,*,*,*,*,*,*,*,0.00
28/08/2015,00:00:00,*,*,*,*,*,*,*,*,0.00
29/08/2015,00:00:00,*,*,*,*,*,*,*,*,0.00
30/08/2015,00:00:00,*,*,*,*,*,*,*,*,0.00
31/08/2015,00:00:00,*,*,*,*,*,*,*,*,0.00
01/09/2015,00:00:00,*,*,*,*,*,*,*,*,0.00
02/09/2015,00:00:00,*,*,*,*,*,*,*,*,0.00
03/09/2015,00:00:00,*,*,*,*,*,*,*,*,0.00
04/09/2015,00:00:00,*,*,*,*,*,*,*,*,0.00
05/09/2015,00:00:00,*,*,*,*,*,*,*,*,0.00
06/09/2015,00:00:00,*,*,*,*,*,*,*,*,0.00
07/09/2015,00:00:00,*,*,*,*,*,*,*,*,0.00
08/09/2015,00:00:00,*,*,*,*,*,*,*,*,0.00
09/09/2015,00:00:00,*,*,*,*,*,*,*,*,0.00
10/09/2015,00:00:00,*,*,*,*,*,*,*,*,0.00
11/09/2015,00:00:00,*,*,*,*,*,*,*,*,0.00
12/09/2015,00:00:00,*,*,*,*,*,*,*,*,0.00
13/09/2015,00:00:00,*,*,*,*,*,*,*,*,0.00
14/09/2015,00:00:00,*,*,*,*,*,*,*,*,0.00
15/09/2015,00:00:00,*,*,*,*,*,*,*,*,0.00
16/09/2015,00:00:00,*,*,*,*,*,*,*,*,0.00
17/09/2015,00:00:00,*,*,*,*,*,*,*,*,0.00
18/09/2015,00:00:00,*,*,*,*,*,*,*,*,0.00
19/09/2015,00:00:00,0.0,*,*,*,*,*,*,*,0.83
20/09/2015,00:00:00,0.0,950.5,23.7,172.4,260.9,0.8,63.7,0.0,4.43
21/09/2015,00:00:00,0.2,949.1,23.6,139.1,253.3,0.9,63.5,0.0,4.19
22/09/2015,00:00:00,300.1,946.4,20.8,110.6,106.7,1.1,67.4,15.8,2.09
23/09/2015,00:00:00,479.7,942.6,18.5,194.5,76.4,1.3,86.2,22.0,1.09
24/09/2015,00:00:00,0.0,947.6,20.8,199.7,229.7,1.2,70.5,0.0,3.78
25/09/2015,00:00:00,0.0,952.2,22.1,118.4,271.6,0.9,65.1,0.0,4.56
26/09/2015,00:00:00,0.0,952.1,22.1,130.2,269.9,1.0,68.9,0.0,4.46
27/09/2015,00:00:00,0.0,950.4,22.7,172.8,198.0,1.1,62.2,0.0,3.57
28/09/2015,00:00:00,0.0,951.6,21.5,155.8,236.7,1.1,64.7,0.0,4.00
29/09/2015,00:00:00,60.0,952.5,20.8,188.9,139.2,0.9,74.9,0.4,2.07
30/09/2015,00:00:00,30.0,952.4,20.7,131.8,168.7,1.2,63.6,0.2,3.25
01/10/2015,00:00:00,0.0,952.4,20.0,161.3,182.5,2.7,62.5,0.0,3.62
02/10/2015,00:00:00,0.0,954.5,19.6,77.5,259.3,3.2,64.3,0.0,4.47
03/10/2015,00:00:00,0.0,957.0,19.7,84.0,243.0,3.0,60.7,0.0,4.46
04/10/2015,00:00:00,0.0,959.0,19.1,195.3,204.1,1.4,63.0,0.0,3.23
05/10/2015,00:00:00,0.0,957.5,19.7,168.4,251.8,1.4,53.1,0.0,4.08
06/10/2015,00:00:00,0.0,952.6,21.6,204.4,225.1,1.2,53.5,0.0,3.81
07/10/2015,00:00:00,0.0,947.8,21.5,210.6,246.0,1.5,53.5,0.0,4.23
08/10/2015,00:00:00,0.0,947.5,21.4,200.3,163.5,1.1,65.0,0.0,2.67
09/10/2015,00:00:00,0.0,949.1,21.9,225.4,206.2,1.8,64.0,0.0,4.11
10/10/2015,00:00:00,0.0,952.9,21.3,197.5,219.1,1.0,64.1,0.0,3.67
11/10/2015,00:00:00,0.0,953.8,21.2,153.3,216.2,0.9,63.4,0.0,3.46
12/10/2015,00:00:00,0.0,951.6,22.8,151.5,77.4,1.3,48.2,0.0,2.20
13/10/2015,00:00:00,0.0,951.2,22.0,203.9,218.3,1.4,61.2,0.0,3.78
14/10/2015,00:00:00,0.0,952.5,20.2,161.0,247.6,1.1,63.0,0.0,3.93
15/10/2015,00:00:00,0.0,953.5,19.9,153.9,189.7,1.3,55.9,0.0,3.40
16/10/2015,00:00:00,0.0,954.2,18.7,118.5,229.7,0.9,59.5,0.0,3.56
17/10/2015,00:00:00,0.0,954.0,18.8,163.1,217.2,0.8,69.6,0.0,3.40
18/10/2015,00:00:00,0.0,954.6,19.8,157.3,169.3,0.6,74.4,0.0,2.68
19/10/2015,00:00:00,0.0,954.6,21.3,162.2,210.3,0.8,56.8,0.0,3.49
20/10/2015,00:00:00,0.0,953.3,22.8,187.3,197.9,0.8,49.1,0.0,3.45
21/10/2015,00:00:00,0.0,951.6,22.9,179.8,201.4,1.2,56.9,0.0,3.27
22/10/2015,00:00:00,0.0,950.3,20.9,213.9,107.3,1.0,69.9,0.0,1.99
23/10/2015,00:00:00,0.4,946.6,20.6,172.0,89.5,1.1,69.7,0.0,1.56
24/10/2015,00:00:00,629.6,943.3,17.1,189.8,48.2,0.8,91.6,17.4,0.53
25/10/2015,00:00:00,0.3,947.6,17.9,143.3,205.5,1.5,67.2,0.0,3.13
26/10/2015,00:00:00,509.7,951.1,15.5,177.9,224.8,2.6,78.5,7.4,3.18
27/10/2015,00:00:00,0.0,951.8,15.2,110.6,195.5,3.5,66.1,0.0,3.05
28/10/2015,00:00:00,0.0,951.9,15.7,115.6,191.0,3.9,60.0,0.0,3.56
29/10/2015,00:00:00,0.0,951.3,14.2,110.7,165.3,4.4,59.8,0.0,3.32
30/10/2015,00:00:00,0.0,951.5,14.6,133.1,206.4,3.2,61.5,0.0,3.30
31/10/2015,00:00:00,0.0,953.9,14.8,99.9,149.2,1.8,60.8,0.0,2.47
01/11/2015,00:00:00,0.0,956.9,15.8,126.8,135.2,1.7,63.4,0.0,2.49
02/11/2015,00:00:00,0.0,959.5,15.5,83.5,152.2,3.6,65.6,0.0,2.91
03/11/2015,00:00:00,0.0,959.1,14.5,51.3,117.8,4.0,68.6,0.0,2.39
04/11/2015,00:00:00,0.0,957.0,15.6,99.2,191.3,2.6,55.7,0.0,3.60
05/11/2015,00:00:00,0.0,954.2,14.6,147.4,192.4,1.1,59.4,0.0,2.82
06/11/2015,00:00:00,0.0,953.2,15.1,138.9,188.6,0.8,47.9,0.0,2.77
07/11/2015,00:00:00,0.0,954.4,14.6,158.5,190.3,0.8,56.2,0.0,2.69
08/11/2015,00:00:00,0.0,956.2,14.7,141.2,191.2,1.3,60.9,0.0,2.87
09/11/2015,00:00:00,0.0,957.5,14.6,99.4,180.2,3.6,56.7,0.0,3.38
10/11/2015,00:00:00,0.0,956.1,16.2,87.4,188.3,4.3,45.6,0.0,3.92
11/11/2015,00:00:00,0.0,954.4,17.6,108.3,185.2,1.7,31.7,0.0,3.53
12/11/2015,00:00:00,0.0,956.2,17.5,147.3,172.0,1.6,50.2,0.0,2.87
13/11/2015,00:00:00,0.0,959.1,17.4,145.8,176.9,0.8,62.5,0.0,2.62
14/11/2015,00:00:00,0.0,960.9,17.2,105.6,176.0,1.2,62.1,0.0,2.72
15/11/2015,00:00:00,0.0,957.9,17.0,128.5,170.0,0.8,60.9,0.0,2.58
16/11/2015,00:00:00,0.0,951.6,16.9,111.7,175.2,1.3,57.6,0.0,3.04
17/11/2015,00:00:00,0.0,948.9,15.9,68.4,175.2,3.1,50.4,0.0,3.50
18/11/2015,00:00:00,0.0,952.4,16.2,164.2,160.3,3.0,53.8,0.0,3.01
19/11/2015,00:00:00,0.0,954.5,17.0,87.1,172.8,2.1,45.9,0.0,3.41
20/11/2015,00:00:00,0.0,956.8,16.3,128.0,169.0,1.0,55.4,0.0,2.61
21/11/2015,00:00:00,0.0,956.0,15.7,122.7,145.8,1.2,60.2,0.0,2.22
22/11/2015,00:00:00,0.0,950.8,15.4,114.9,123.0,1.0,74.8,0.0,1.80
23/11/2015,00:00:00,30.0,951.9,15.8,203.1,87.7,0.9,88.4,0.2,1.28
24/11/2015,00:00:00,60.0,957.5,15.7,127.4,77.5,1.3,80.6,0.4,1.51
25/11/2015,00:00:00,0.0,958.7,15.3,117.1,164.3,1.8,53.1,0.0,2.92
26/11/2015,00:00:00,0.2,951.3,15.0,129.2,44.3,1.4,79.6,0.0,0.82
27/11/2015,00:00:00,269.9,944.0,14.2,178.8,97.8,0.9,81.8,11.2,1.64
28/11/2015,00:00:00,60.0,948.0,13.8,219.7,98.2,1.3,79.6,0.4,1.59
29/11/2015,00:00:00,119.9,950.8,13.9,245.4,88.9,1.4,81.7,4.6,0.94
30/11/2015,00:00:00,0.0,953.9,14.0,167.6,125.3,1.8,64.2,0.0,2.08
01/12/2015,00:00:00,0.0,955.6,12.3,148.9,157.8,2.9,58.6,0.0,2.90
02/12/2015,00:00:00,0.0,958.0,13.5,132.7,161.3,2.2,44.3,0.0,2.89
03/12/2015,00:00:00,0.0,958.7,14.7,182.7,153.1,1.7,46.3,0.0,2.59
04/12/2015,00:00:00,0.0,962.4,12.7,174.3,103.2,2.4,59.6,0.0,1.87
05/12/2015,00:00:00,0.0,964.1,11.3,69.5,157.0,4.8,59.1,0.0,2.73
06/12/2015,00:00:00,0.0,965.4,10.9,138.8,131.7,2.2,61.9,0.0,1.95
07/12/2015,00:00:00,0.0,966.8,11.2,115.4,156.3,1.5,56.2,0.0,2.27
08/12/2015,00:00:00,0.0,964.7,11.6,102.3,155.6,1.1,63.9,0.0,2.15
09/12/2015,00:00:00,0.0,963.0,11.3,96.7,143.7,1.1,70.2,0.0,1.84
10/12/2015,00:00:00,0.0,960.0,12.2,76.7,148.9,3.7,65.3,0.0,2.39
11/12/2015,00:00:00,0.0,959.1,11.6,144.1,95.3,2.5,66.2,0.0,1.55
12/12/2015,00:00:00,0.0,957.0,11.2,137.5,128.0,1.9,63.9,0.0,1.61
13/12/2015,00:00:00,30.0,952.7,9.4,158.0,105.3,4.1,66.7,0.2,1.88
14/12/2015,00:00:00,0.0,955.1,11.0,106.2,157.9,4.4,60.6,0.0,2.51
15/12/2015,00:00:00,0.0,956.8,11.6,135.2,148.6,1.1,53.3,0.0,2.08
16/12/2015,00:00:00,0.0,957.9,11.4,112.3,83.0,1.3,60.6,0.0,1.53
17/12/2015,00:00:00,0.0,956.4,11.3,120.4,115.4,2.4,60.6,0.0,1.67
18/12/2015,00:00:00,0.0,954.0,10.1,117.0,51.3,2.8,65.1,0.0,1.26
19/12/2015,00:00:00,0.0,954.8,10.1,41.5,110.4,3.8,67.5,0.0,1.75
20/12/2015,00:00:00,0.0,956.7,10.2,64.3,123.9,3.9,64.2,0.0,2.11
21/12/2015,00:00:00,0.0,961.5,11.1,83.0,114.0,2.7,69.8,0.0,1.78
22/12/2015,00:00:00,0.0,963.9,11.2,108.1,148.1,0.9,69.4,0.0,1.85
23/12/2015,00:00:00,0.0,963.2,10.1,107.5,151.6,1.2,70.4,0.0,1.96
24/12/2015,00:00:00,0.0,962.3,12.6,101.7,149.0,2.9,49.9,0.0,2.60
25/12/2015,00:00:00,0.0,963.3,13.3,112.0,149.6,0.9,49.6,0.0,2.17
26/12/2015,00:00:00,0.0,963.3,13.0,129.1,142.1,1.0,52.6,0.0,1.98
27/12/2015,00:00:00,0.0,962.0,12.4,100.4,149.3,2.7,57.7,0.0,2.72
28/12/2015,00:00:00,0.0,963.0,11.2,110.8,152.3,1.6,61.3,0.0,2.24
29/12/2015,00:00:00,0.0,961.7,11.8,162.7,104.1,1.1,70.1,0.0,1.44
30/12/2015,00:00:00,0.0,956.2,12.2,156.6,148.0,1.8,53.4,0.0,2.45
31/12/2015,00:00:00,0.1,954.4,10.9,170.2,142.0,3.1,56.9,0.0,2.42
01/01/2016,00:00:00,89.9,953.5,3.4,163.0,76.2,4.4,68.7,0.6,1.14
02/01/2016,00:00:00,0.1,958.2,2.7,172.6,138.9,2.7,60.3,0.0,1.48
03/01/2016,00:00:00,180.1,957.7,5.5,162.0,17.3,0.8,87.7,1.2,0.23
04/01/2016,00:00:00,329.9,955.5,9.1,147.8,45.9,1.1,90.6,11.6,0.55
05/01/2016,00:00:00,210.9,947.5,12.1,286.0,66.0,2.4,86.3,4.6,1.00
06/01/2016,00:00:00,0.0,947.9,14.3,254.6,33.8,2.2,74.0,0.0,0.84
07/01/2016,00:00:00,0.0,949.2,16.8,155.7,131.7,1.5,45.3,0.0,2.65
08/01/2016,00:00:00,60.0,940.2,12.6,258.3,83.2,2.2,61.9,0.4,1.50
09/01/2016,00:00:00,30.0,947.6,11.9,213.0,164.2,3.6,64.0,0.2,2.68
10/01/2016,00:00:00,0.0,954.6,12.7,172.5,156.7,0.8,74.3,0.0,1.97
11/01/2016,00:00:00,0.0,955.0,12.8,203.6,60.8,1.0,77.3,0.0,0.87
12/01/2016,00:00:00,0.0,955.6,16.0,187.9,156.1,1.6,47.9,0.0,2.79
13/01/2016,00:00:00,0.0,954.3,14.6,171.2,156.9,1.7,58.2,0.0,2.64
14/01/2016,00:00:00,0.0,951.7,13.8,250.7,123.4,2.7,63.2,0.0,2.08
15/01/2016,00:00:00,0.0,954.4,11.3,205.3,167.3,2.5,55.1,0.0,2.54
16/01/2016,00:00:00,0.0,955.4,10.3,140.8,120.4,1.7,64.9,0.0,1.67
17/01/2016,00:00:00,0.0,950.1,11.4,143.5,59.5,1.8,81.7,0.0,0.85
18/01/2016,00:00:00,449.8,938.3,9.5,160.6,19.9,1.6,86.8,13.0,0.24
19/01/2016,00:00:00,180.0,938.8,6.0,202.6,134.9,2.7,70.4,4.2,1.60
20/01/2016,00:00:00,241.2,951.3,5.5,196.4,146.3,2.0,70.9,2.8,1.53
21/01/2016,00:00:00,599.7,952.9,7.9,172.5,22.8,5.9,90.5,33.6,0.26
22/01/2016,00:00:00,150.9,953.3,9.7,118.9,168.5,1.6,74.5,3.1,1.94
23/01/2016,00:00:00,0.0,957.0,9.0,145.2,156.8,2.4,63.1,0.0,2.28
24/01/2016,00:00:00,0.0,958.0,4.9,133.4,149.2,4.7,65.8,0.0,1.91
25/01/2016,00:00:00,60.0,960.0,2.6,204.1,90.2,2.8,63.7,0.4,1.16
26/01/2016,00:00:00,30.2,960.8,4.0,174.9,117.5,2.3,63.1,0.2,1.50
27/01/2016,00:00:00,329.8,958.5,6.0,165.0,122.0,2.2,67.8,5.2,1.50
28/01/2016,00:00:00,0.0,962.2,6.2,166.2,99.3,2.5,61.1,0.0,1.44
29/01/2016,00:00:00,0.0,964.4,8.0,104.1,157.6,1.2,68.5,0.0,1.97
30/01/2016,00:00:00,0.0,963.9,11.8,130.1,166.7,1.1,65.5,0.0,2.06
31/01/2016,00:00:00,0.0,962.7,11.5,167.9,49.7,1.2,65.1,0.0,0.96
01/02/2016,00:00:00,0.0,959.9,11.3,174.1,147.6,1.4,63.7,0.0,2.21
02/02/2016,00:00:00,0.0,958.1,11.1,189.6,126.0,1.5,75.3,0.0,1.46
03/02/2016,00:00:00,0.0,961.7,13.2,108.2,181.6,1.2,62.3,0.0,2.60
04/02/2016,00:00:00,0.0,961.2,13.3,134.0,185.7,1.2,60.3,0.0,2.74
05/02/2016,00:00:00,30.4,956.3,10.7,135.7,51.3,1.1,81.4,0.8,0.68
06/02/2016,00:00:00,570.1,947.5,8.7,211.4,132.0,2.3,87.7,31.8,1.33
07/02/2016,00:00:00,750.5,953.8,5.1,202.9,141.2,3.2,68.7,18.3,1.56
08/02/2016,00:00:00,0.0,957.9,5.6,168.4,205.9,4.4,55.2,0.0,2.64
09/02/2016,00:00:00,0.0,958.5,7.5,122.6,184.1,1.4,64.2,0.0,2.27
10/02/2016,00:00:00,0.1,958.9,8.2,158.2,176.5,1.6,62.9,0.0,2.24
11/02/2016,00:00:00,179.9,955.4,10.4,170.4,94.5,1.1,80.5,4.6,1.30
12/02/2016,00:00:00,89.9,952.8,12.6,202.5,126.6,1.6,80.0,1.0,1.69
13/02/2016,00:00:00,0.0,954.0,14.4,185.4,198.5,1.4,57.3,0.0,3.15
14/02/2016,00:00:00,0.0,950.4,15.0,170.6,127.2,1.0,62.2,0.0,1.72
15/02/2016,00:00:00,0.0,951.4,16.5,152.6,112.2,1.2,56.7,0.0,2.18
16/02/2016,00:00:00,0.0,957.5,20.3,131.3,207.5,1.5,28.6,0.0,4.02
17/02/2016,00:00:00,0.0,963.6,20.5,142.0,213.5,3.0,25.1,0.0,5.25
18/02/2016,00:00:00,0.0,961.5,19.9,136.7,156.4,1.3,31.8,0.0,3.37
19/02/2016,00:00:00,0.0,952.5,18.5,157.1,189.3,3.9,44.7,0.0,4.78
20/02/2016,00:00:00,0.0,951.4,14.7,213.5,213.2,2.2,67.2,0.0,3.11
21/02/2016,00:00:00,0.3,953.8,14.4,144.2,215.8,1.4,63.4,0.0,3.15
22/02/2016,00:00:00,389.7,949.8,9.8,226.9,140.1,3.3,67.0,12.6,2.12
23/02/2016,00:00:00,0.0,954.2,13.7,178.8,221.3,2.4,48.3,0.0,3.61
24/02/2016,00:00:00,0.0,953.0,16.5,170.8,216.2,0.9,51.6,0.0,3.33
25/02/2016,00:00:00,0.0,950.3,12.3,154.3,99.9,1.0,82.0,0.0,1.28
26/02/2016,00:00:00,0.0,949.8,15.0,168.5,203.5,0.8,65.8,0.0,3.00
27/02/2016,00:00:00,0.0,949.5,12.8,180.3,145.5,1.0,80.5,0.0,2.02
28/02/2016,00:00:00,0.0,952.0,12.9,151.0,206.8,1.1,64.9,0.0,2.86
29/02/2016,00:00:00,0.0,956.7,12.6,120.5,223.1,2.1,54.0,0.0,3.16
01/03/2016,00:00:00,0.0,956.6,18.7,148.2,245.8,5.1,19.7,0.0,7.40
02/03/2016,00:00:00,0.0,951.3,17.6,169.5,219.4,2.9,50.5,0.0,5.02
03/03/2016,00:00:00,0.1,944.7,13.0,146.6,220.6,1.5,66.1,0.0,3.01
04/03/2016,00:00:00,120.2,943.1,11.9,269.9,219.0,1.8,71.4,2.6,3.12
05/03/2016,00:00:00,449.7,945.0,9.8,268.8,117.4,2.0,80.5,12.4,1.36
06/03/2016,00:00:00,1.0,950.6,11.0,198.9,242.5,2.0,59.6,0.0,3.34
07/03/2016,00:00:00,0.0,951.6,10.7,130.8,246.0,1.2,69.2,0.0,3.25
08/03/2016,00:00:00,0.0,948.7,12.1,155.5,215.9,2.2,72.3,0.0,2.88
09/03/2016,00:00:00,0.0,945.7,14.5,159.0,206.7,2.0,47.6,0.0,3.78
10/03/2016,00:00:00,0.1,941.7,14.9,222.6,160.6,2.1,56.7,0.0,2.83
11/03/2016,00:00:00,89.9,947.0,10.6,251.1,190.9,1.9,72.9,2.0,2.26
12/03/2016,00:00:00,0.0,951.7,13.3,164.0,256.8,1.4,51.2,0.0,3.84
13/03/2016,00:00:00,0.2,949.3,17.3,136.6,187.4,5.2,35.1,0.0,5.47
14/03/2016,00:00:00,240.1,944.1,14.0,206.2,140.8,2.1,69.5,7.8,2.75
15/03/2016,00:00:00,449.9,943.0,9.4,287.5,119.7,3.4,86.0,7.6,1.13
16/03/2016,00:00:00,330.8,950.4,8.9,246.6,223.8,3.2,72.7,4.6,2.80
17/03/2016,00:00:00,0.0,955.1,9.5,135.1,174.5,2.0,66.9,0.0,1.94
18/03/2016,00:00:00,0.0,957.5,9.3,190.4,267.2,2.6,66.0,0.0,3.34
19/03/2016,00:00:00,0.0,954.4,11.5,157.9,221.7,1.8,70.0,0.0,3.19
20/03/2016,00:00:00,30.0,948.2,13.0,197.4,279.4,2.5,65.4,4.2,3.91
21/03/2016,00:00:00,0.0,953.1,13.2,149.8,294.0,1.6,49.8,0.0,4.11
22/03/2016,00:00:00,0.0,955.6,13.9,122.7,269.3,1.3,51.3,0.0,4.10
23/03/2016,00:00:00,0.0,953.5,16.9,139.3,275.0,1.2,35.4,0.0,4.53
24/03/2016,00:00:00,0.0,945.1,16.2,164.9,106.5,3.9,47.3,0.0,3.03
25/03/2016,00:00:00,0.0,944.8,13.8,288.4,258.4,2.5,64.6,0.0,3.28
26/03/2016,00:00:00,0.0,948.9,13.7,259.1,214.1,1.5,64.9,0.0,3.17
27/03/2016,00:00:00,0.1,950.1,10.6,147.5,285.5,2.4,51.4,0.0,3.73
28/03/2016,00:00:00,89.9,948.8,10.0,213.0,184.5,2.0,57.9,2.0,2.48
29/03/2016,00:00:00,0.0,952.3,9.5,201.2,251.2,2.5,58.4,0.0,3.33
30/03/2016,00:00:00,0.0,955.2,12.7,203.2,205.7,1.8,58.7,0.0,3.12
31/03/2016,00:00:00,0.0,957.9,14.1,144.8,308.2,0.9,70.2,0.0,4.24
01/04/2016,00:00:00,0.0,959.5,15.6,135.1,299.7,1.1,49.1,0.0,4.42
02/04/2016,00:00:00,0.0,957.0,16.2,117.7,294.4,1.3,34.2,0.0,4.58
03/04/2016,00:00:00,0.0,955.0,16.1,137.7,269.5,1.1,40.4,0.0,4.60
04/04/2016,00:00:00,0.0,953.5,16.7,152.3,231.5,0.8,50.5,0.0,3.65
05/04/2016,00:00:00,0.0,950.4,16.4,176.0,283.8,0.6,57.6,0.0,4.14
06/04/2016,00:00:00,0.0,948.5,19.6,130.9,287.9,1.0,34.9,0.0,4.82
07/04/2016,00:00:00,0.0,948.3,19.5,155.6,286.8,1.0,37.4,0.0,4.77
08/04/2016,00:00:00,0.0,947.4,20.6,126.1,178.6,2.6,29.7,0.0,5.28
09/04/2016,00:00:00,0.0,944.6,23.7,193.6,261.9,1.9,29.7,0.0,5.82
10/04/2016,00:00:00,0.0,944.3,16.8,211.3,292.9,1.6,57.7,0.0,4.61
11/04/2016,00:00:00,0.0,945.8,16.0,224.5,236.6,2.0,55.7,0.0,4.20
12/04/2016,00:00:00,30.0,946.4,14.2,249.3,307.0,2.2,66.3,0.2,4.65
13/04/2016,00:00:00,0.0,948.8,16.0,220.3,299.8,2.2,57.4,0.0,4.53
14/04/2016,00:00:00,0.0,950.5,19.0,155.6,318.5,2.0,35.6,0.0,5.53
15/04/2016,00:00:00,0.0,950.7,22.6,155.7,294.0,1.1,29.4,0.0,5.41
16/04/2016,00:00:00,0.0,951.4,23.4,192.2,298.5,1.7,24.9,0.0,5.99
17/04/2016,00:00:00,0.0,955.0,21.6,155.4,307.6,1.0,35.2,0.0,5.50
18/04/2016,00:00:00,0.0,956.1,22.5,201.6,311.0,1.1,35.4,0.0,5.58
19/04/2016,00:00:00,0.0,955.7,24.4,184.8,327.5,1.2,19.6,0.0,5.99
20/04/2016,00:00:00,0.0,953.6,22.1,131.3,330.6,1.4,23.3,0.0,6.11
21/04/2016,00:00:00,0.0,951.9,21.4,140.3,185.5,0.9,19.1,0.0,3.62
22/04/2016,00:00:00,0.0,952.4,19.6,69.3,317.5,4.4,32.9,0.0,6.43
23/04/2016,00:00:00,0.0,953.2,17.4,175.5,319.5,1.2,39.6,0.0,5.13
24/04/2016,00:00:00,0.0,948.8,17.7,157.6,287.9,1.0,43.9,0.0,4.43
25/04/2016,00:00:00,0.0,943.3,19.0,198.0,299.3,1.2,48.6,0.0,4.62
26/04/2016,00:00:00,0.0,943.6,17.5,197.1,220.6,1.3,63.7,0.0,3.29
27/04/2016,00:00:00,0.0,944.4,16.1,176.9,342.2,1.6,53.8,0.0,5.03
28/04/2016,00:00:00,0.0,951.4,15.2,160.2,334.8,1.2,58.1,0.0,4.84
29/04/2016,00:00:00,0.0,953.0,19.1,201.4,319.6,1.4,24.6,0.0,5.63
30/04/2016,00:00:00,0.0,952.0,21.4,116.1,269.2,1.9,31.4,0.0,5.83
01/05/2016,00:00:00,0.0,947.0,21.6,168.7,303.6,3.5,39.3,0.0,6.71
02/05/2016,00:00:00,0.2,949.1,20.5,180.8,303.8,2.4,36.4,0.0,6.01
03/05/2016,00:00:00,239.9,949.0,18.0,155.4,106.0,1.0,61.5,4.6,2.12
04/05/2016,00:00:00,60.1,947.0,15.4,259.8,321.1,2.4,63.7,0.4,4.65
05/05/2016,00:00:00,149.9,945.8,14.5,280.4,215.6,2.4,73.8,2.6,3.18
06/05/2016,00:00:00,60.0,946.7,14.2,254.5,266.6,2.3,66.4,0.4,3.59
07/05/2016,00:00:00,0.0,949.7,15.0,203.3,331.2,1.9,53.6,0.0,4.98
08/05/2016,00:00:00,0.0,951.1,15.0,182.1,209.3,1.4,62.7,0.0,3.23
09/05/2016,00:00:00,0.0,951.7,15.3,161.1,208.8,0.9,69.2,0.0,3.51
10/05/2016,00:00:00,0.0,952.3,17.7,170.2,305.9,0.8,62.5,0.0,4.52
11/05/2016,00:00:00,0.0,952.0,21.1,240.7,341.6,1.7,27.6,0.0,6.34
12/05/2016,00:00:00,0.0,951.5,22.7,151.8,310.7,1.4,30.4,0.0,5.75
13/05/2016,00:00:00,60.0,949.0,24.7,177.1,266.4,1.0,45.2,1.2,4.92
14/05/2016,00:00:00,0.0,947.2,27.4,224.3,235.1,1.5,30.0,0.0,5.47
15/05/2016,00:00:00,0.1,948.5,24.7,166.2,102.4,1.2,35.5,0.0,2.69
16/05/2016,00:00:00,89.9,950.9,21.6,217.7,60.1,1.1,58.8,0.8,1.57
17/05/2016,00:00:00,0.0,952.2,19.7,179.1,346.4,1.2,51.8,0.0,5.68
18/05/2016,00:00:00,0.0,950.1,19.7,153.6,359.3,1.5,36.7,0.0,6.17
19/05/2016,00:00:00,0.0,950.8,19.3,198.9,348.4,1.8,40.0,0.0,5.95
20/05/2016,00:00:00,0.0,953.2,18.8,147.5,333.0,0.9,47.9,0.0,5.26
21/05/2016,00:00:00,0.0,952.1,21.1,165.3,261.9,0.9,41.1,0.0,4.44
22/05/2016,00:00:00,30.0,948.0,19.7,187.3,214.1,2.4,56.5,0.2,4.22
23/05/2016,00:00:00,89.9,948.3,16.5,251.8,306.8,2.2,67.7,0.8,4.72
24/05/2016,00:00:00,1.0,951.3,17.4,194.0,359.2,3.0,52.2,0.0,5.76
25/05/2016,00:00:00,0.0,951.2,21.2,203.7,328.2,1.9,38.9,0.0,5.86
26/05/2016,00:00:00,0.0,947.4,21.0,294.4,306.9,2.2,32.8,0.0,5.96
27/05/2016,00:00:00,0.0,947.5,20.2,207.0,342.1,1.6,40.9,0.0,5.88
28/05/2016,00:00:00,0.0,950.7,21.5,239.9,351.9,1.9,36.6,0.0,6.22
29/05/2016,00:00:00,0.0,952.0,21.2,206.2,346.9,1.7,41.5,0.0,5.64
30/05/2016,00:00:00,0.0,952.0,23.9,187.5,316.2,1.2,36.6,0.0,5.54
31/05/2016,00:00:00,0.0,952.3,25.3,157.5,318.6,0.9,31.3,0.0,5.47
01/06/2016,00:00:00,0.0,951.4,28.5,196.2,339.3,1.2,22.3,0.0,6.75
02/06/2016,00:00:00,0.0,952.0,29.0,183.3,328.5,1.0,22.3,0.0,6.37
03/06/2016,00:00:00,0.0,949.9,28.8,146.5,285.0,0.9,18.9,0.0,5.36
04/06/2016,00:00:00,0.0,947.3,27.2,200.3,236.6,1.2,32.8,0.0,5.11
05/06/2016,00:00:00,0.0,946.9,23.3,215.2,354.8,1.1,40.9,0.0,6.15
06/06/2016,00:00:00,0.0,949.9,23.9,154.8,347.0,0.9,35.3,0.0,6.05
07/06/2016,00:00:00,0.0,950.5,25.7,185.7,276.9,1.2,35.0,0.0,6.14
08/06/2016,00:00:00,0.0,950.1,24.3,161.9,347.6,1.1,42.4,0.0,6.00
09/06/2016,00:00:00,0.0,949.2,20.4,101.2,340.0,3.4,53.9,0.0,6.40
10/06/2016,00:00:00,0.0,948.5,18.5,96.8,351.2,4.3,44.0,0.0,6.31
11/06/2016,00:00:00,0.0,949.2,20.9,209.7,287.2,1.6,46.4,0.0,4.84
12/06/2016,00:00:00,0.0,951.5,21.2,168.8,341.2,1.1,61.7,0.0,5.17
13/06/2016,00:00:00,0.0,952.0,21.7,149.1,354.4,1.0,49.6,0.0,5.78
14/06/2016,00:00:00,0.0,947.6,22.8,159.9,293.0,0.9,39.3,0.0,4.88
15/06/2016,00:00:00,0.0,942.4,24.6,209.3,308.8,2.0,45.7,0.0,6.44
16/06/2016,00:00:00,0.0,947.0,24.1,248.4,355.9,1.9,40.0,0.0,6.75
17/06/2016,00:00:00,0.0,950.9,26.5,191.9,354.6,1.9,38.0,0.0,6.83
18/06/2016,00:00:00,0.0,951.8,29.4,188.4,347.0,2.6,24.8,0.0,8.15
19/06/2016,00:00:00,0.0,950.3,32.3,148.6,333.6,1.9,21.2,0.0,8.18
20/06/2016,00:00:00,0.0,948.6,32.6,161.9,333.8,0.9,25.1,0.0,6.52
21/06/2016,00:00:00,0.0,950.0,31.5,153.1,345.8,1.1,21.1,0.0,6.70
22/06/2016,00:00:00,0.0,950.4,31.9,193.6,340.1,1.7,25.1,0.0,7.62
23/06/2016,00:00:00,0.0,949.2,31.0,197.2,354.5,2.4,27.9,0.0,8.60
24/06/2016,00:00:00,0.0,948.4,29.3,169.8,350.4,3.0,34.9,0.0,8.38
25/06/2016,00:00:00,0.0,946.4,31.0,185.4,335.7,1.3,36.9,0.0,6.87
26/06/2016,00:00:00,0.0,945.7,27.3,186.9,332.7,1.2,44.4,0.0,6.23
27/06/2016,00:00:00,0.0,947.8,22.1,266.3,238.8,1.5,64.3,0.0,4.24
28/06/2016,00:00:00,0.0,948.2,25.6,251.1,321.9,2.0,55.7,0.0,6.02
29/06/2016,00:00:00,0.0,946.4,29.4,206.5,337.0,1.7,33.3,0.0,7.14
30/06/2016,00:00:00,0.0,946.7,26.9,194.6,302.5,1.6,40.5,0.0,6.30
01/07/2016,00:00:00,0.0,950.5,24.9,131.1,343.4,2.1,44.2,0.0,6.39
02/07/2016,00:00:00,0.0,950.5,27.0,158.0,346.8,2.6,40.1,0.0,7.45
03/07/2016,00:00:00,0.0,948.6,27.6,89.6,345.3,3.2,34.1,0.0,7.98
04/07/2016,00:00:00,0.0,947.3,27.5,152.7,339.4,2.9,38.0,0.0,8.01
05/07/2016,00:00:00,0.0,946.0,25.2,163.1,345.3,3.6,54.5,0.0,7.12
06/07/2016,00:00:00,0.0,946.1,25.5,86.9,344.8,4.4,49.6,0.0,7.47
07/07/2016,00:00:00,0.0,946.4,27.1,89.6,345.4,3.1,41.5,0.0,7.42
08/07/2016,00:00:00,0.0,947.1,25.5,166.2,336.2,3.0,39.7,0.0,7.22
09/07/2016,00:00:00,0.0,948.6,24.2,86.6,348.8,5.1,50.9,0.0,7.59
10/07/2016,00:00:00,0.0,948.7,25.3,71.5,351.6,4.0,33.5,0.0,8.64
11/07/2016,00:00:00,0.0,948.2,26.1,109.4,349.9,3.8,30.0,0.0,8.86
12/07/2016,00:00:00,0.0,947.6,26.7,99.4,342.0,3.6,34.0,0.0,8.09
13/07/2016,00:00:00,0.0,947.3,27.1,149.4,339.8,2.0,35.3,0.0,7.25
14/07/2016,00:00:00,0.0,947.9,26.5,160.4,340.8,0.9,41.3,0.0,6.10
15/07/2016,00:00:00,0.0,946.3,28.3,172.8,346.9,1.4,26.7,0.0,6.93
16/07/2016,00:00:00,0.0,945.8,30.1,145.2,343.7,0.9,21.3,0.0,6.47
17/07/2016,00:00:00,0.0,947.2,28.9,175.2,336.9,1.4,37.8,0.0,6.85
18/07/2016,00:00:00,0.0,947.1,24.9,241.1,350.6,1.4,43.7,0.0,6.45
19/07/2016,00:00:00,0.0,946.0,24.4,112.1,345.0,2.7,41.8,0.0,6.93
20/07/2016,00:00:00,0.0,944.0,23.2,120.7,342.6,4.2,55.2,0.0,6.83
21/07/2016,00:00:00,0.0,944.4,23.6,72.5,336.0,4.0,53.9,0.0,6.98
22/07/2016,00:00:00,0.0,948.0,22.9,94.4,340.6,4.2,50.1,0.0,7.07
23/07/2016,00:00:00,0.0,949.9,25.8,157.6,337.8,2.4,35.8,0.0,7.14
24/07/2016,00:00:00,0.0,949.1,26.9,173.2,338.4,2.2,29.9,0.0,7.30
25/07/2016,00:00:00,0.0,946.0,28.7,104.6,340.4,3.3,26.3,0.0,8.72
26/07/2016,00:00:00,0.0,944.7,28.6,94.9,336.1,3.3,26.6,0.0,8.66